Regional Weather Roundup
Issued by NWS Cleveland, OH

Home | Current Version | Previous Version | Text Only | Print | Product List | Glossary Off
Versions: 1 2 3 4 5 6 7 8 9 10 11 12 13 14 15 16 17 18 19 20 21 22 23 24 25 26 27 28 29 30 31 32 33 34 35 36 37 38 39 40 41 42 43 44 45 46 47 48 49 50

000
ASUS41 KCLE 141110
RWRCLE
OHIO REGIONAL WEATHER ROUNDUP
NATIONAL WEATHER SERVICE CLEVELAND, OH
700 AM EDT MON JUL 14 2014

NOTE: "FAIR" INDICATES FEW OR NO CLOUDS BELOW 12,000 FEET WITH NO
SIGNIFICANT WEATHER AND/OR OBSTRUCTIONS TO VISIBILITY.

OHZ001>008-015>018-024>027-034-035-043-044-141200-
   NORTHWEST OHIO

CITY           SKY/WX    TMP DP  RH WIND       PRES   REMARKS
DEFIANCE       CLOUDY    68  65  90 CALM      29.87S
FINDLAY        CLOUDY    66  63  90 S5        29.88S
TOLEDO EXPRESS CLOUDY    65  63  93 CALM      29.87R
TOLEDO EXEC    CLOUDY    68  63  84 CALM      29.87F
LIMA           CLOUDY    70  66  87 SW5       29.90S
$$

OHZ009>014-019>023-028>033-038-089-141200-
   NORTHEAST OHIO

CITY           SKY/WX    TMP DP  RH WIND       PRES   REMARKS
CLE-HOPKINS    MOCLDY    68  65  90 W3        29.90S
CLE-LAKEFRONT  MOCLDY    71  66  84 S6        29.87R
CUY CO. ARPT   MOCLDY    68  66  94 S7        29.89
LORAIN-ELYRIA  MOCLDY    69  65  86 SW5       29.89S
ASHTABULA      FOG       67  66  97 S5        29.90F VSB 1/4
AKRON-CANTON   CLOUDY    71  67  87 S3        29.91S FOG
WOOSTER        CLOUDY    69  68  96 S6        29.91F FOG
MANSFIELD      CLOUDY    68  67  96 CALM      29.91F
YOUNGSTOWN     FOG       69  68  96 S3        29.92S VSB 3/4
$$

OHZ042-051>053-060>062-070>072-077>081-141200-
  SOUTHWEST OHIO

CITY           SKY/WX    TMP DP  RH WIND       PRES   REMARKS
CINC-COVINGTON HVY RAIN  71  68  90 W9G21     29.95R FOG
CINC-LUNKEN    RAIN      72  70  93 SW10      29.93R FOG
HAMILTON       RAIN      72  71  97 VRB3      29.94R FOG
DAYTON         FOG       72  70  93 W8        29.93R VSB 1/4
WRIGHT-PAT AFB DRZL/FOG  72  72 100 SW8       29.91S VSB 1
DAYTON GENERAL LGT RAIN  71  71 100 SW10      29.92R FOG
WILMINGTON     TSTM      70  69  97 W8        29.93R VSB 1
$$

OHZ036-037-039>041-045>050-054>059-063>069-073>076-082>088-141200-
  CENTRAL AND SOUTHEAST OHIO

CITY           SKY/WX    TMP DP  RH WIND       PRES   REMARKS
COLUMBUS       CLOUDY    73  70  90 SW3       29.90S FOG
OSU AIRPORT    CLOUDY    70  69  97 SW5       29.91R FOG
BOLTON FIELD   FOG       70  70 100 CALM      29.91S VSB 3/4
RICKENBACK AFB CLOUDY    73  68  86 S5        29.90S HAZE
NEWARK         CLOUDY    71  69  93 CALM      29.90F FOG
MARION         FOG       69  68  96 S3        29.90F VSB<1/4
LANCASTER      CLOUDY    73  70  90 SW5       29.91S FOG
ZANESVILLE     CLOUDY    72  69  90 S5        29.91F FOG
NEW PHILLY     CLOUDY    71  70  96 CALM      29.92S FOG
$$


USA.gov is the U.S. government's official web portal to all federal, state and local government web resources and services.